EW4498 Weather Reports


Display with metric or nautical units.
time (UTC)temp
F
wind
direction
speed
MPH
gust
MPH
rain 1hr
in
rain 24hr
in
rain mn
in
humidity
%
barometer
mb
20260831213034 60 204 0.0 0.0 0.00 0.13 0.13 91 1007.9
20260831211534 60 204 0.0 0.0 0.00 0.13 0.13 91 1007.8
20260831210036 60 204 0.0 0.0 0.00 0.13 0.13 91 1007.8
20260831204530 60 200 0.0 0.0 0.00 0.13 0.13 91 1007.7
20260831203056 60 200 0.0 0.0 0.01 0.13 0.13 91 1007.6
20260831201543 61 200 0.0 0.0 0.01 0.13 0.13 90 1007.4
20260831200030 61 200 0.0 0.0 0.01 0.13 0.13 90 1007.4
20260831194537 61 200 0.0 0.0 0.01 0.13 0.13 89 1007.2
20260831193112 61 200 0.0 0.0 0.00 0.13 0.13 89 1007.2
20260831191539 61 200 0.0 4.0 0.00 0.13 0.13 89 1007.3
20260831190016 61 225 0.0 5.0 0.00 0.13 0.13 88 1007.3
20260831184552 61 223 1.0 5.0 0.00 0.13 0.13 88 1007.3
20260831183148 61 223 0.0 3.0 0.00 0.13 0.13 87 1006.9
20260831181603 62 225 2.0 6.0 0.00 0.13 0.13 87 1006.9
20260831180147 62 208 1.0 5.0 0.00 0.13 0.13 88 1006.6
20260831174544 62 199 1.0 4.0 0.00 0.13 0.13 87 1006.6
20260831173145 63 208 2.0 6.0 0.00 0.13 0.13 87 1006.6
20260831171619 63 209 3.0 5.0 0.00 0.13 0.13 87 1006.5
20260831170042 64 244 2.0 7.0 0.00 0.13 0.13 87 1006.4
20260831164639 64 205 3.0 5.0 0.01 0.13 0.13 86 1006.5
20260831163040 64 202 2.0 4.0 0.02 0.13 0.13 86 1006.6
20260831161600 64 213 2.0 5.0 0.02 0.13 0.13 86 1006.7
20260831160031 64 175 2.0 5.0 0.02 0.13 0.13 86 1006.4
20260831154517 65 205 3.0 7.0 0.02 0.12 0.12 84 1006.4
20260831153013 66 192 3.0 8.0 0.01 0.11 0.11 79 1006.5
20260831151621 68 215 4.0 10.0 0.01 0.11 0.11 73 1006.4
20260831150044 70 213 5.0 11.0 0.01 0.11 0.11 69 1006.2
20260831144640 71 221 4.0 9.0 0.00 0.10 0.10 67 1006.2
20260831143048 71 213 6.0 15.0 0.00 0.10 0.10 66 1006.4
20260831141651 73 241 5.0 10.0 0.00 0.10 0.10 64 1006.4
20260831134526 71 212 3.0 9.0 0.00 0.11 0.10 70 1006.4
20260831133144 71 234 4.0 13.0 0.00 0.11 0.10 70 1006.4
20260831131600 71 203 5.0 11.0 0.00 0.11 0.10 70 1006.4
20260831130046 71 209 5.0 14.0 0.00 0.11 0.10 70 1006.3
20260831124539 71 216 7.0 14.0 0.00 0.11 0.10 70 1006.1
20260831123137 70 211 8.0 14.0 0.00 0.11 0.10 72 1006.2
20260831121546 70 208 6.0 15.0 0.00 0.11 0.10 73 1006.3
20260831120150 71 222 8.0 16.0 0.00 0.11 0.10 75 1006.5
20260831114556 70 182 8.0 15.0 0.00 0.13 0.10 77 1006.3
20260831113046 68 196 6.0 13.0 0.00 0.13 0.10 80 1006.3
20260831111642 69 222 7.0 10.0 0.00 0.13 0.10 82 1006.3
20260831110050 68 194 6.0 13.0 0.00 0.13 0.10 82 1006.3
20260831104515 67 199 5.0 14.0 0.02 0.13 0.10 86 1006.3
20260831103056 66 165 5.0 8.0 0.08 0.13 0.10 87 1006.5
20260831101540 65 193 2.0 6.0 0.08 0.13 0.10 91 1006.7
20260831100145 63 212 3.0 10.0 0.08 0.13 0.10 88 1006.9
20260831094643 64 221 5.0 13.0 0.07 0.14 0.09 88 1007.0
20260831093040 67 215 5.0 10.0 0.00 0.07 0.02 82 1006.9
20260831091518 68 193 4.0 10.0 0.00 0.07 0.02 82 1007.0
20260831090011 66 202 4.0 8.0 0.00 0.07 0.02 87 1007.1
20260831084512 65 173 4.0 10.0 0.00 0.07 0.02 87 1007.2
20260831083007 65 197 5.0 9.0 0.00 0.07 0.02 89 1007.2
20260831081508 64 168 5.0 12.0 0.00 0.07 0.02 91 1007.3
20260831080002 63 189 5.0 11.0 0.02 0.07 0.02 93 1007.3
20260831074502 63 163 3.0 8.0 0.02 0.07 0.02 94 1007.3
20260831073058 62 214 3.0 8.0 0.02 0.07 0.02 94 1007.3
20260831071555 61 174 3.0 8.0 0.02 0.07 0.02 93 1007.5
20260831070050 61 170 2.0 6.0 0.01 0.06 0.01 94 1007.7
20260831064548 60 190 2.0 4.0 0.00 0.05 0.00 94 1007.8
20260831063100 59 211 0.0 0.0 0.00 0.05 0.00 94 1007.8
20260831061543 58 213 0.0 0.0 0.00 0.05 0.00 94 1007.7
20260831060041 57 213 0.0 0.0 0.00 0.05 0.00 94 1007.7
20260831054539 56 213 0.0 0.0 0.00 0.05 0.00 94 1007.8
20260831053057 54 213 0.0 0.0 0.00 0.05 0.00 94 1007.9
20260831051537 53 213 0.0 0.0 0.00 0.05 0.00 93 1008.0
20260831050032 52 213 0.0 0.0 0.00 0.05 0.00 93 1008.0
20260831044612 51 213 0.0 0.0 0.00 0.06 0.00 93 1008.0
20260831043028 51 213 0.0 0.0 0.00 0.06 0.00 93 1008.2
20260831041533 50 213 0.0 0.0 0.00 0.06 0.00 92 1008.6
20260831040027 49 213 0.0 0.0 0.00 0.06 0.00 91 1008.4
20260831034523 49 213 0.0 0.0 0.00 0.06 0.00 92 1008.4
20260831033024 50 213 0.0 0.0 0.00 0.06 0.00 91 1008.4
20260831031531 50 213 0.0 0.0 0.00 0.06 0.00 92 1008.5
20260831030020 50 213 0.0 0.0 0.00 0.06 0.00 91 1008.5
20260831024518 50 213 0.0 0.0 0.00 0.06 0.00 91 1008.7
20260831023017 50 213 0.0 0.0 0.00 0.06 0.00 91 1008.7
20260831021518 50 213 0.0 0.0 0.00 0.06 0.00 91 1008.9
20260831020014 50 213 0.0 0.0 0.00 0.06 0.00 90 1009.0
20260831014515 51 213 0.0 0.0 0.00 0.06 0.00 91 1009.0
20260831013010 51 213 0.0 0.0 0.00 0.06 0.00 90 1009.1
20260831011509 52 213 0.0 0.0 0.00 0.06 0.00 91 1008.9
20260831010007 51 213 0.0 0.0 0.00 0.06 0.00 90 1008.9
20260831004506 52 213 0.0 0.0 0.00 0.07 0.00 90 1009.1
20260831003003 53 213 0.0 0.0 0.00 0.07 0.00 89 1009.2
20260831001600 54 213 0.0 0.0 0.00 0.07 0.00 89 1009.2
20260830234601 55 213 0.0 0.0 0.00 0.07 0.00 89 1009.0
20260830233050 56 213 0.0 0.0 0.00 0.07 0.00 90 1009.0
20260830231553 57 213 0.0 3.0 0.00 0.07 0.00 90 1009.2
20260830230050 56 213 1.0 2.0 0.00 0.07 0.00 89 1009.0
20260830224548 57 213 0.0 0.0 0.00 0.07 0.00 88 1008.8
20260830223043 58 213 0.0 0.0 0.00 0.07 0.00 89 1008.9
20260830221539 58 213 0.0 1.0 0.00 0.07 0.00 88 1008.9
20260830220039 59 212 1.0 4.0 0.00 0.07 0.00 87 1009.0
20260830214536 59 220 1.0 4.0 0.00 0.07 0.07 86 1008.9